Location: Winthrop
(48.4780°N, 120.1850°W)
Time: 02:17:12
(UTC-07:00)

Transit 2A - Pass Details

Date: 16 June 2024
Orbit: 591 x 960 km, 66.7° (Epoch: 23 July)

Event Time Altitude Azimuth Distance (km) Brightness Sun altitude
Rises 00:19:21 0° 325° (NW) 3,421 10.6 -17.5°
Reaches altitude 10° 00:22:10 10° 338° (NNW) 2,540 9.9 -17.6°
Maximum altitude 00:27:10 27° 35° (NE) 1,689 8.3 -17.7°
Drops below altitude 10° 00:32:25 10° 92° (E) 2,672 8.7 -17.9°
Sets 00:35:26 0° 104° (ESE) 3,633 9.3 -17.9°
